World > North America > United States > Illinois > Barnes  

Barnes, IL Hourly Weather Updates

Feedback E-mail the Weather

Quick Clicks

Barnes, IL Weather Maps

°F °C°F °C
Barnes Weather Map
UTC Time: 4/12/2024, 23:50
Your Time:

Barnes, IL Regional Weather

Expires:202404130000;;639990
ASUS43 KLOT 122310
RWRIL 

ILLINOIS REGIONAL WEATHER ROUNDUP
NATIONAL WEATHER SERVICE CHICAGO/ROMEOVILLE IL
600 PM CDT FRI APR 12 2024

NOTE: "FAIR" INDICATES FEW OR NO CLOUDS BELOW 12,000 FEET WITH NO
SIGNIFICANT WEATHER AND/OR OBSTRUCTIONS TO VISIBILITY.

* THESE STATIONS ARE NOT UNDER NWS QUALITY CONTROL. THEY ALSO MAY NOT
  REPORT WEATHER SUCH AS PRECIPITATION OR FOG.


ILZ028>032-037-038-041>044-048-051>054-059>061-130000-
CENTRAL ILLINOIS
  
CITY           SKY/WX    TMP DP  RH WIND       PRES   REMARKS
PONTIAC        MOSUNNY   61  33  35 NW25G31   29.94R TC  16           
BLOOMINGTON    PTSUNNY   61  34  36 NW23G38   29.97R TC  16           
DECATUR        SUNNY     64  33  31 NW25G37   29.98R TC  18           
PEORIA         SUNNY     64  31  28 NW18G32   29.98R TC  18           
LACON*         MOSUNNY   61  33  35 NW20G26   29.96R TC  16           
LINCOLN*       SUNNY     65  32  30 NW17G26   29.99R TC  18           
SPRINGFIELD    SUNNY     66  29  24 NW22G35   30.00R TC  19           
TAYLORVILLE    SUNNY     63  36  36 MISG      30.02R TC  17           
$$


SKY/WX - Weather  TMP - Temperature  DP - Dew Point  RH - Humidity
WIND - Wind Direction/Speed PRES - Barometric Pressure VSB - Visibility
WCI - Wind Chill Index E13G22 Wind - East Wind 13 mph/Gusts of 22 mph

Trending Headlines

Trending Entertainment Headlines

Barnes Radar Loop

Use the map search tool if you want to place a location marker on the radar map...

Barnes Quick Facts

National Two Day Weather Forecast


E-mail the Barnes Weather Forecast

Voice your opinion or tell us about page issues...